�������l�o���
Date,Time,MP-1(��Sv/h),MP-2(��Sv/h),MP-3(��Sv/h),MP-4(��Sv/h),MP-5(��Sv/h),MP-6(��Sv/h),MP-7(��Sv/h),MP-8(��Sv/h),����,����(m/s),���J
2022/01/04,00:00,0.584,0.879,0.557,1.080,0.749,0.352,0.615,0.582,��,8.1,�L
2022/01/04,00:10,0.585,0.878,0.556,1.076,0.748,0.352,0.615,0.583,��,7.6,��
2022/01/04,00:20,0.585,0.880,0.558,1.078,0.747,0.353,0.614,0.582,��,6.7,��
2022/01/04,00:30,0.584,0.879,0.556,1.079,0.750,0.354,0.615,0.583,���쐼,5.8,��
2022/01/04,00:40,0.586,0.878,0.557,1.078,0.749,0.354,0.614,0.582,��,5.2,��
2022/01/04,00:50,0.584,0.879,0.556,1.077,0.750,0.351,0.615,0.583,���k��,3.5,��
2022/01/04,01:00,0.585,0.880,0.556,1.077,0.747,0.353,0.615,0.582,�k�k��,4.6,��
2022/01/04,01:10,0.584,0.876,0.557,1.076,0.750,0.352,0.616,0.581,�k�k��,3.7,��
2022/01/04,01:20,0.584,0.878,0.554,1.079,0.751,0.352,0.615,0.582,�k�k��,3.4,��
2022/01/04,01:30,0.584,0.877,0.557,1.077,0.749,0.352,0.613,0.582,�k�k��,3.8,��
2022/01/04,01:40,0.585,0.878,0.557,1.079,0.748,0.353,0.614,0.581,�k��,3.9,��
2022/01/04,01:50,0.584,0.878,0.555,1.076,0.749,0.353,0.615,0.581,�k�k��,4.1,��
2022/01/04,02:00,0.584,0.879,0.557,1.076,0.749,0.351,0.616,0.582,�k�k��,5.1,��
2022/01/04,02:10,0.584,0.879,0.554,1.078,0.750,0.351,0.615,0.583,�k�k��,5.2,��
2022/01/04,02:20,0.585,0.880,0.555,1.078,0.749,0.352,0.613,0.582,�k�k��,5.5,��
2022/01/04,02:30,0.584,0.879,0.554,1.076,0.749,0.352,0.613,0.583,�k,5.6,��
2022/01/04,02:40,0.584,0.878,0.555,1.079,0.750,0.353,0.615,0.582,�k�k��,5.8,��
2022/01/04,02:50,0.583,0.880,0.555,1.077,0.749,0.353,0.613,0.582,�k�k��,5.8,��
2022/01/04,03:00,0.583,0.879,0.554,1.077,0.750,0.352,0.614,0.582,�k,5.8,��
2022/01/04,03:10,0.583,0.879,0.554,1.078,0.748,0.352,0.613,0.582,�k,6.5,��
2022/01/04,03:20,0.585,0.878,0.556,1.078,0.750,0.352,0.614,0.583,�k�k��,7.4,��
2022/01/04,03:30,0.583,0.878,0.556,1.077,0.749,0.352,0.613,0.581,�k,7.4,��
2022/01/04,03:40,0.585,0.879,0.555,1.076,0.750,0.352,0.614,0.582,�k,6.7,��
2022/01/04,03:50,0.583,0.880,0.555,1.077,0.747,0.352,0.613,0.581,�k,6.3,��
2022/01/04,04:00,0.584,0.879,0.555,1.079,0.750,0.352,0.612,0.584,�k,5.7,��
2022/01/04,04:10,0.583,0.878,0.556,1.078,0.750,0.352,0.614,0.581,�k,5.2,��
2022/01/04,04:20,0.584,0.880,0.556,1.077,0.750,0.352,0.614,0.581,�k,5.3,��
2022/01/04,04:30,0.583,0.880,0.556,1.078,0.750,0.352,0.613,0.582,�k,4.6,��
2022/01/04,04:40,0.584,0.879,0.555,1.079,0.749,0.352,0.612,0.581,�k�k��,2.6,��
2022/01/04,04:50,0.584,0.878,0.557,1.077,0.749,0.352,0.615,0.581,�k�k��,3.9,��
2022/01/04,05:00,0.584,0.879,0.556,1.078,0.747,0.352,0.613,0.581,�k�k��,4.2,��
2022/01/04,05:10,0.584,0.881,0.557,1.077,0.748,0.352,0.612,0.581,�k�k��,3.6,��
2022/01/04,05:20,0.585,0.877,0.554,1.077,0.747,0.351,0.613,0.581,�k�k��,5.4,��
2022/01/04,05:30,0.582,0.879,0.556,1.076,0.749,0.352,0.613,0.581,�k�k��,5.0,��
2022/01/04,05:40,0.583,0.879,0.555,1.076,0.748,0.353,0.613,0.582,�k�k��,4.6,��
2022/01/04,05:50,0.584,0.878,0.555,1.077,0.749,0.352,0.612,0.582,�k�k��,4.1,��
2022/01/04,06:00,0.582,0.878,0.557,1.077,0.748,0.353,0.613,0.581,�k��,4.8,��
2022/01/04,06:10,0.583,0.879,0.556,1.076,0.746,0.351,0.614,0.583,�k�k��,4.5,��
2022/01/04,06:20,0.583,0.878,0.556,1.078,0.750,0.352,0.614,0.581,�k�k��,5.7,�L
2022/01/04,06:30,0.583,0.878,0.556,1.079,0.747,0.352,0.614,0.581,�k��,4.5,�L
2022/01/04,06:40,0.582,0.879,0.555,1.078,0.751,0.351,0.614,0.582,�k��,4.4,��
2022/01/04,06:50,0.585,0.878,0.556,1.078,0.748,0.352,0.614,0.579,�k�k��,5.0,��
2022/01/04,07:00,0.583,0.880,0.554,1.078,0.749,0.352,0.614,0.581,�k�k��,5.8,�L
2022/01/04,07:10,0.583,0.878,0.555,1.079,0.749,0.354,0.613,0.581,�k,6.3,�L
2022/01/04,07:20,0.584,0.879,0.557,1.079,0.749,0.354,0.615,0.582,�k�k��,6.3,�L
2022/01/04,07:30,0.583,0.877,0.556,1.077,0.750,0.353,0.615,0.581,�k,7.2,��
2022/01/04,07:40,0.583,0.878,0.558,1.077,0.750,0.352,0.612,0.580,�k�k��,7.9,��
2022/01/04,07:50,0.584,0.879,0.556,1.077,0.749,0.352,0.614,0.581,�k�k��,7.1,��
2022/01/04,08:00,0.585,0.878,0.555,1.078,0.747,0.353,0.613,0.582,�k�k��,7.3,��
2022/01/04,08:10,0.583,0.878,0.556,1.078,0.749,0.351,0.614,0.581,�k�k��,5.6,��
2022/01/04,08:20,0.585,0.879,0.556,1.077,0.748,0.352,0.614,0.582,�k�k��,5.4,��
2022/01/04,08:30,0.584,0.878,0.554,1.078,0.748,0.351,0.613,0.582,�k,5.8,��
2022/01/04,08:40,0.584,0.882,0.556,1.076,0.748,0.352,0.614,0.581,�k�k��,5.5,��
2022/01/04,08:50,0.585,0.879,0.555,1.077,0.747,0.351,0.614,0.582,�k�k��,4.8,�L
2022/01/04,09:00,0.585,0.881,0.556,1.075,0.747,0.352,0.615,0.582,�k�k��,4.7,�L
2022/01/04,09:10,0.585,0.880,0.557,1.078,0.749,0.351,0.614,0.583,�k�k��,6.8,�L
2022/01/04,09:20,0.585,0.881,0.556,1.078,0.750,0.353,0.614,0.580,�k,5.7,�L
2022/01/04,09:30,0.584,0.880,0.557,1.080,0.749,0.354,0.615,0.582,�k,6.9,��
2022/01/04,09:40,0.586,0.879,0.557,1.078,0.748,0.353,0.614,0.581,�k�k��,6.6,��
2022/01/04,09:50,0.585,0.881,0.555,1.077,0.748,0.353,0.615,0.582,�k�k��,8.7,��
2022/01/04,10:00,0.585,0.878,0.556,1.076,0.749,0.352,0.613,0.582,�k�k��,8.1,��
2022/01/04,10:10,0.583,0.880,0.557,1.077,0.747,0.352,0.614,0.583,�k�k��,10.5,��
2022/01/04,10:20,0.584,0.881,0.556,1.076,0.751,0.352,0.612,0.582,�k�k��,8.7,�L
2022/01/04,10:30,0.585,0.879,0.557,1.079,0.750,0.354,0.613,0.582,�k�k��,9.3,�L
2022/01/04,10:40,0.581,0.877,0.557,1.080,0.750,0.352,0.613,0.582,�k�k��,10.6,�L
2022/01/04,10:50,0.586,0.876,0.557,1.077,0.748,0.353,0.613,0.581,�k�k��,9.4,��
2022/01/04,11:00,0.585,0.878,0.556,1.078,0.750,0.353,0.612,0.581,�k�k��,7.7,��
2022/01/04,11:10,0.585,0.881,0.556,1.080,0.751,0.353,0.614,0.582,�k�k��,6.6,��
2022/01/04,11:20,0.585,0.882,0.558,1.079,0.751,0.352,0.614,0.583,�k�k��,9.2,�L
2022/01/04,11:30,0.585,0.879,0.555,1.078,0.751,0.352,0.614,0.583,�k�k��,11.1,��
2022/01/04,11:40,0.586,0.880,0.557,1.079,0.752,0.352,0.614,0.582,�k�k��,9.5,��
2022/01/04,11:50,0.585,0.878,0.559,1.081,0.751,0.354,0.614,0.584,�k�k��,7.6,��
2022/01/04,12:00,0.586,0.882,0.557,1.078,0.752,0.353,0.614,0.583,�k�k��,6.1,��
2022/01/04,12:10,0.585,0.883,0.558,1.079,0.751,0.352,0.614,0.583,�k��,5.2,��
2022/01/04,12:20,0.584,0.881,0.558,1.080,0.749,0.353,0.616,0.583,�k��,5.8,��
2022/01/04,12:30,0.586,0.881,0.556,1.077,0.751,0.352,0.617,0.584,���k��,7.2,��
2022/01/04,12:40,0.586,0.881,0.557,1.077,0.750,0.353,0.615,0.585,���k��,9.4,��
2022/01/04,12:50,0.585,0.881,0.558,1.079,0.750,0.353,0.615,0.582,���k��,12.7,��
2022/01/04,13:00,0.586,0.880,0.556,1.079,0.751,0.353,0.616,0.584,�k��,7.6,��
2022/01/04,13:10,0.585,0.881,0.555,1.079,0.752,0.352,0.617,0.585,�k��,8.0,��
2022/01/04,13:20,0.585,0.881,0.556,1.078,0.753,0.353,0.616,0.581,�k��,10.2,��
2022/01/04,13:30,0.585,0.882,0.555,1.080,0.752,0.351,0.616,0.583,���k��,9.4,��
2022/01/04,13:40,0.585,0.881,0.557,1.081,0.751,0.353,0.616,0.582,�k��,9.8,��
2022/01/04,13:50,0.587,0.880,0.556,1.077,0.752,0.352,0.616,0.582,���k��,10.3,��
2022/01/04,14:00,0.586,0.878,0.557,1.078,0.753,0.352,0.615,0.583,�k��,10.0,��
2022/01/04,14:10,0.585,0.878,0.555,1.080,0.752,0.353,0.615,0.583,���k��,8.4,��
2022/01/04,14:20,0.585,0.878,0.554,1.079,0.751,0.351,0.616,0.583,�k��,8.8,��
2022/01/04,14:30,0.585,0.879,0.554,1.081,0.753,0.351,0.615,0.582,�k��,9.1,��
2022/01/04,14:40,0.584,0.880,0.554,1.079,0.753,0.354,0.613,0.584,�k��,9.1,��
2022/01/04,14:50,0.586,0.882,0.554,1.079,0.751,0.351,0.616,0.582,�k��,9.5,��
2022/01/04,15:00,0.585,0.881,0.553,1.079,0.754,0.349,0.616,0.583,���k��,10.0,��
2022/01/04,15:10,0.583,0.883,0.554,1.080,0.753,0.350,0.613,0.580,�k��,8.2,��
2022/01/04,15:20,0.585,0.881,0.554,1.079,0.749,0.349,0.615,0.584,���k��,7.2,��
2022/01/04,15:30,0.585,0.881,0.554,1.080,0.752,0.351,0.615,0.583,�k��,10.3,��
2022/01/04,15:40,0.587,0.880,0.553,1.079,0.752,0.350,0.615,0.583,���k��,7.4,��
2022/01/04,15:50,0.583,0.880,0.552,1.081,0.752,0.353,0.615,0.583,���k��,6.8,�L
2022/01/04,16:00,0.586,0.882,0.553,1.077,0.753,0.353,0.615,0.585,���k��,7.4,��
2022/01/04,16:10,0.583,0.880,0.554,1.081,0.754,0.353,0.615,0.584,���k��,8.3,��
2022/01/04,16:20,0.584,0.880,0.555,1.081,0.751,0.352,0.614,0.583,���k��,6.8,�L
2022/01/04,16:30,0.584,0.878,0.555,1.079,0.753,0.353,0.613,0.584,���k��,5.3,��
2022/01/04,16:40,0.583,0.882,0.556,1.078,0.752,0.351,0.614,0.584,�k��,7.6,��
2022/01/04,16:50,0.584,0.881,0.555,1.079,0.751,0.352,0.614,0.583,�k��,7.1,��
2022/01/04,17:00,0.585,0.879,0.556,1.079,0.751,0.351,0.613,0.583,�k��,7.5,��
2022/01/04,17:10,0.582,0.882,0.555,1.080,0.751,0.351,0.614,0.585,�k��,6.8,��
2022/01/04,17:20,0.584,0.880,0.555,1.078,0.751,0.352,0.614,0.583,�k��,7.4,��
2022/01/04,17:30,0.582,0.879,0.553,1.078,0.750,0.349,0.613,0.583,�k��,7.5,��
2022/01/04,17:40,0.583,0.879,0.555,1.078,0.752,0.350,0.615,0.584,�k��,7.4,��
2022/01/04,17:50,0.582,0.879,0.552,1.079,0.751,0.349,0.612,0.582,���k��,7.6,��
2022/01/04,18:00,0.583,0.880,0.553,1.075,0.749,0.350,0.615,0.585,���k��,8.0,��
2022/01/04,18:10,0.583,0.881,0.555,1.079,0.751,0.349,0.615,0.583,���k��,7.1,��
2022/01/04,18:20,0.583,0.879,0.554,1.079,0.750,0.351,0.613,0.583,�k��,8.6,��
2022/01/04,18:30,0.582,0.880,0.554,1.077,0.749,0.349,0.612,0.582,�k��,8.0,��
2022/01/04,18:40,0.582,0.879,0.554,1.079,0.750,0.351,0.614,0.583,�k��,7.4,��
2022/01/04,18:50,0.585,0.879,0.554,1.078,0.751,0.351,0.613,0.582,�k��,8.4,��
2022/01/04,19:00,0.581,0.880,0.554,1.077,0.749,0.351,0.614,0.582,�k��,7.2,��
2022/01/04,19:10,0.582,0.879,0.555,1.079,0.749,0.350,0.614,0.583,�k��,8.4,��
2022/01/04,19:20,0.583,0.878,0.554,1.078,0.750,0.351,0.613,0.583,�k��,8.0,��
2022/01/04,19:30,0.582,0.879,0.552,1.079,0.750,0.351,0.613,0.583,�k��,7.4,��
2022/01/04,19:40,0.582,0.880,0.554,1.079,0.748,0.352,0.614,0.582,�k��,6.6,��
2022/01/04,19:50,0.583,0.879,0.555,1.078,0.750,0.350,0.615,0.582,�k��,7.4,��
2022/01/04,20:00,0.584,0.879,0.556,1.079,0.750,0.351,0.613,0.582,�k��,6.2,��
2022/01/04,20:10,0.583,0.880,0.555,1.078,0.752,0.352,0.614,0.582,�k��,5.1,��
2022/01/04,20:20,0.584,0.879,0.554,1.079,0.751,0.350,0.614,0.581,�k��,4.9,��
2022/01/04,20:30,0.583,0.878,0.554,1.078,0.749,0.350,0.613,0.582,���k��,3.3,��
2022/01/04,20:40,0.581,0.880,0.555,1.077,0.752,0.351,0.613,0.581,���k��,1.4,��
2022/01/04,20:50,0.582,0.880,0.555,1.077,0.750,0.350,0.614,0.582,�k��,1.5,��
2022/01/04,21:00,0.583,0.879,0.555,1.077,0.749,0.349,0.614,0.582,�k��,1.5,��
2022/01/04,21:10,0.583,0.878,0.555,1.078,0.750,0.350,0.612,0.582,-,CALM,��
2022/01/04,21:20,0.584,0.877,0.555,1.078,0.750,0.350,0.612,0.580,���쓌,1.1,��
2022/01/04,21:30,0.583,0.879,0.555,1.079,0.750,0.348,0.612,0.582,���쓌,1.2,��
2022/01/04,21:40,0.583,0.880,0.555,1.080,0.750,0.351,0.611,0.582,�k�k��,0.8,��
2022/01/04,21:50,0.582,0.881,0.554,1.078,0.750,0.350,0.612,0.583,-,CALM,��
2022/01/04,22:00,0.582,0.878,0.555,1.079,0.749,0.352,0.613,0.581,�k��,1.2,��
2022/01/04,22:10,0.582,0.880,0.554,1.077,0.751,0.351,0.613,0.581,�k,2.3,��
2022/01/04,22:20,0.583,0.880,0.555,1.078,0.750,0.351,0.614,0.581,���k��,3.0,��
2022/01/04,22:30,0.584,0.879,0.554,1.078,0.750,0.352,0.612,0.581,���k��,2.0,��
2022/01/04,22:40,0.584,0.879,0.555,1.075,0.751,0.351,0.611,0.581,�k�k��,1.9,��
2022/01/04,22:50,0.583,0.879,0.554,1.079,0.750,0.351,0.612,0.579,�k�k��,2.3,��
2022/01/04,23:00,0.582,0.879,0.554,1.078,0.749,0.351,0.613,0.580,�k��,1.7,��
2022/01/04,23:10,0.583,0.879,0.553,1.076,0.749,0.351,0.612,0.581,�k��,2.2,��
2022/01/04,23:20,0.581,0.879,0.554,1.078,0.747,0.350,0.613,0.581,���k��,1.4,��
2022/01/04,23:30,0.583,0.878,0.554,1.076,0.749,0.352,0.612,0.580,�k��,1.7,��
2022/01/04,23:40,0.582,0.879,0.552,1.075,0.749,0.351,0.611,0.581,�k�k��,1.4,��
2022/01/04,23:50,0.582,0.879,0.554,1.075,0.749,0.350,0.612,0.581,��,2.2,��
